User: anonymous   Login
Location: Betpouey
(42.8833°N, 0.0333°E)
Time: 18:33:47
(UTC+00:00)
Language:

NOSS 0 Rocket - Orbit

View from above orbital plane
View from above orbital plane
View from above satellite
View from above satellite

Ground track
Ground track

The orbit data is extracted from the following two-line orbital elements,

1  5679U 71110B   21172.60312756 -.00000012  00000-0  34710-4 0  9993
2  5679  69.9962 226.1147 0015266 284.8974  75.0436 13.85355536117047
Epoch (UTC): 21 June 2021 14:28:30
Eccentricity: 0.0015266
inclination: 69.9962°
perigee height: 934 km
apogee height: 956 km
right ascension of ascending node: 226.1147°
argument of perigee: 284.8974°
revolutions per day: 13.85355536
mean anomaly at epoch: 75.0436°
orbit number at epoch: 11704

The dashed part of the orbit path shows where the satellite is in the earth's shadow,  

DLR